Weather History for KMVY - February, 2012

Change the Weather History Date:

Saturday, February 18, 2012

  Actual Average Record
Temperature  
Mean Temperature 41 °F -  
Max Temperature 46 °F 38 °F 58 °F (1976)
Min Temperature 36 °F 22 °F -1 °F (1979)
Degree Days  
Heating Degree Days 24    
Moisture  
Dew Point 26 °F    
Average Humidity 55    
Maximum Humidity 70    
Minimum Humidity 39    
Precipitation  
Precipitation 0.00 in - - ()
Sea Level Pressure  
Sea Level Pressure 29.93 in    
Wind  
Wind Speed 11 mph (West)    
Max Wind Speed 18 mph    
Max Gust Speed 28 mph    
Visibility 10 miles    
Events      
Averages and records for this station are not official NWS values.
T = Trace of Precipitation, MM = Missing Value Source: NWS Daily Summary

Daily Weather History Graph

Daily Weather History Graph

Search for Another Location

Airport or City:

Trip Planner

Search our weather history database for the weather conditions in past years. The results will help you decide how hot, cold, wet, or windy it might be!

Date:

Astronomy

Feb. 18, 2012 Rise Set
Actual Time 6:34 AM EST 5:19 PM EST
Civil Twilight 6:05 AM EST 5:47 PM EST
Nautical Twilight 5:33 AM EST 6:19 PM EST
Astronomical Twilight 5:01 AM EST 6:51 PM EST
Moon 4:12 AM EST (2/18) 2:11 PM EST (2/18)
Length of Visible Light 11h 41m
Length of Day
10h 45m
Waning Crescent, 11% of the Moon is Illuminated
Feb 18
Waning Crescent
Feb 21
New
Feb 29
First Quarter
Mar 8
Full
Mar 14
Last Quarter

Hourly Weather History & Observations

Time (EST) Temp. Windchill Dew Point Humidity Pressure Visibility Wind Dir Wind Speed Gust Speed Precip Events Conditions
12:53 AM 39.0 °F 34.0 °F 24.1 °F 55% 29.92 in 10.0 mi WNW 6.9 mph - N/A   Clear
1:53 AM 39.0 °F 32.3 °F 25.0 °F 57% 29.92 in 10.0 mi WNW 10.4 mph - N/A   Clear
2:53 AM 37.0 °F 30.4 °F 25.0 °F 62% 29.93 in 10.0 mi WNW 9.2 mph - N/A   Clear
3:53 AM 37.0 °F 30.4 °F 25.0 °F 62% 29.93 in 10.0 mi WNW 9.2 mph - N/A   Clear
4:53 AM 36.0 °F 28.0 °F 25.0 °F 64% 29.95 in 10.0 mi WNW 11.5 mph 20.7 mph N/A   Clear
5:53 AM 37.0 °F 29.3 °F 23.0 °F 57% 29.96 in 10.0 mi WNW 11.5 mph 23.0 mph N/A   Clear
7:53 AM 37.9 °F 28.9 °F 23.0 °F 55% 29.99 in 10.0 mi WNW 16.1 mph 21.9 mph N/A   Clear
8:53 AM 39.9 °F 30.8 °F 23.0 °F 51% 29.98 in 10.0 mi West 18.4 mph 26.5 mph N/A   Clear
9:53 AM 42.1 °F 34.2 °F 21.9 °F 45% 29.97 in 10.0 mi WNW 16.1 mph 23.0 mph N/A   Clear
10:53 AM 44.1 °F 37.7 °F 21.9 °F 42% 29.95 in 10.0 mi West 12.7 mph - N/A   Clear
12:53 PM 46.0 °F 40.2 °F 21.9 °F 39% 29.91 in 10.0 mi West 12.7 mph 21.9 mph N/A   Clear
1:53 PM 45.0 °F 38.9 °F 21.0 °F 39% 29.90 in 10.0 mi WSW 12.7 mph 21.9 mph N/A   Partly Cloudy
2:53 PM 46.0 °F 41.0 °F 24.1 °F 42% 29.88 in 10.0 mi WSW 10.4 mph 17.3 mph N/A   Clear
3:53 PM 44.1 °F 37.7 °F 24.1 °F 45% 29.88 in 10.0 mi WSW 12.7 mph 27.6 mph N/A   Overcast
4:53 PM 42.1 °F 34.9 °F 27.0 °F 55% 29.88 in 10.0 mi WSW 13.8 mph 21.9 mph N/A   Mostly Cloudy
5:53 PM 42.1 °F 35.7 °F 28.0 °F 58% 29.90 in 10.0 mi WSW 11.5 mph - N/A   Overcast
6:53 PM 42.1 °F 34.9 °F 28.0 °F 58% 29.93 in 10.0 mi WSW 13.8 mph 20.7 mph N/A   Mostly Cloudy
7:53 PM 42.1 °F 36.6 °F 28.9 °F 60% 29.94 in 10.0 mi West 9.2 mph - N/A   Clear
8:53 PM 43.0 °F 37.7 °F 28.0 °F 56% 29.94 in 10.0 mi West 9.2 mph 17.3 mph N/A   Clear
9:53 PM 42.1 °F 35.7 °F 30.0 °F 62% 29.95 in 10.0 mi West 11.5 mph - N/A   Partly Cloudy
10:53 PM 42.1 °F 36.1 °F 30.9 °F 65% 29.96 in 10.0 mi West 10.4 mph 17.3 mph N/A   Overcast
11:53 PM 42.1 °F 37.7 °F 33.1 °F 70% 29.96 in 10.0 mi West 6.9 mph - N/A   Overcast